Location: Marcé
(47.5801°N, 0.3280°W)
Time: 10:37:09
(UTC+01:00)

Vanguard 3 - Pass Details

Date: 05 December 2021
Orbit: 508 x 3260 km, 33.3° (Epoch: 17 January)

Event Time Altitude Azimuth Distance (km) Brightness Sun altitude
Exits shadow 04:12:27 33° 191° (S) 4,546 10.6 -42.9°
Maximum altitude 04:19:03 40° 158° (SSE) 4,135 10.6 -41.8°
Drops below altitude 10° 04:34:20 10° 97° (E) 5,392 12.0 -39.3°
Sets 04:38:18 0° 91° (E) 6,093 12.5 -38.6°
